Regional Weather Roundup
Issued by NWS

Home | Current Version | Previous Version | Text Only | Print | Product List | Glossary Off
Versions: 1 2 3 4 5 6 7 8 9 10 11 12 13 14 15 16 17 18 19 20 21 22 23 24 25 26 27 28 29 30 31 32 33 34 35 36 37 38 39 40 41 42 43 44 45 46 47 48 49 50

000
ASUS43 KOAX 290510
RWRNE

WEATHER ROUNDUP FOR NEBRASKA
NATIONAL WEATHER SERVICE OMAHA NE
1200 AM CDT FRI AUG 29 2014

NOTES: SATELLITE DATA IS BEING USED TO AUGMENT CLOUD COVER ABOVE
       12000 FEET.
       "FAIR" INDICATES FEW OR NO CLOUDS BELOW 12,000 FEET WITH NO
       SIGNIFICANT WEATHER AND/OR OBSTRUCTIONS TO VISIBILITY.

  * THESE STATIONS DO NOT REPORT WEATHER SUCH AS RAIN...SNOW OR FOG.

NEZ001>004-019>022-054>056-290600-
NEBRASKA PANHANDLE

CITY           SKY/WX    TMP DP  RH WIND       PRES   REMARKS
SCOTTSBLUFF    PTCLDY    56  53  90 E6        30.03R
ALLIANCE       MOCLDY    59  53  80 W7        30.01R
CHADRON        PTCLDY    57  54  89 CALM      29.97R
KIMBALL        PTCLDY    54  50  89 SW3       30.07S
SIDNEY         MOCLDY    59  52  77 W9        30.05S
$$

NEZ057>060-069>072-079>082-290600-
SOUTHWEST NEBRASKA

CITY           SKY/WX    TMP DP  RH WIND       PRES   REMARKS
NORTH PLATTE   PTCLDY    61  58  90 NW5       29.93F
IMPERIAL       PTCLDY    61  56  83 NW7       29.97S
LEXINGTON      MOCLDY    66  64  92 NW5       29.89F
MCCOOK         PTCLDY    64  58  80 NW12      29.92F
OGALLALA       MOCLDY    55  54  94 CALM      29.97F
$$

NEZ005>010-023>029-035>040-094-290600-
NORTH CENTRAL NEBRASKA

CITY           SKY/WX    TMP DP  RH WIND       PRES   REMARKS
VALENTINE      MOCLDY    64  63  96 W3        29.90R
AINSWORTH      PTCLDY    60  59  97 W6        29.89S
BROKEN BOW     CLOUDY    65  62  90 CALM      29.89S
O`NEILL        CLOUDY    67  67  99 SW3       29.85R
ORD            MOCLDY    65  63  93 CALM      29.85F
THEDFORD       PTCLDY    60  58  95 CALM      29.94S
$$

NEZ041-046>049-061>064-073>077-083>087-290600-
SOUTH CENTRAL NEBRASKA

CITY           SKY/WX    TMP DP  RH WIND       PRES   REMARKS
GRAND ISLAND   CLOUDY    74  68  81 SW6       29.85R
AURORA         CLOUDY    71  69  95 SW5       29.84F
HASTINGS       CLOUDY    69  61  75 S7        29.85S
HEBRON         CLOUDY    70  63  77 CALM      29.84S
HOLDREGE       CLOUDY    69  65  88 CALM      29.85F
KEARNEY *      CLOUDY    72  64  78 NW3       29.86S
YORK           CLOUDY    72 N/A N/A S7        29.84F
$$

NEZ011>018-030>034-042>045-290600-
NORTHEAST NEBRASKA

CITY           SKY/WX    TMP DP  RH WIND       PRES   REMARKS
NORFOLK        CLOUDY    71  68  90 S6        29.82F
ALBION         LGT RAIN  68  65  89 CALM      29.84F
BLAIR          MOCLDY    74  72  92 SE6       29.85S FOG
FREMONT        PTCLDY    73  70  88 SE7       29.84F
TEKAMAH        PTCLDY    72  71  97 SE8       29.83F FOG
WAYNE          CLOUDY    72  69  92 S8        29.83F
$$

NEZ050>053-065>068-078-088>093-290600-
SOUTHEAST NEBRASKA

CITY           SKY/WX    TMP DP  RH WIND       PRES   REMARKS
LINCOLN        MOCLDY    74  68  81 SE5       29.85S
OMAHA EPPLEY   MOCLDY    73  68  84 SE8       29.85S
BEATRICE       CLOUDY    73  69  87 SE3       29.85S
FALLS CITY     MOCLDY    76  73  91 CALM      29.86R
NEBRASKA CITY  CLOUDY    73  73  97 SE3       29.86F
PLATTSMOUTH    MOCLDY    73  69  87 SE5       29.86S
$$

NEZ044-045-051>053-067-290600-
OMAHA AREA

CITY           SKY/WX    TMP DP  RH WIND       PRES   REMARKS
OMAHA EPPLEY   MOCLDY    73  68  84 SE8       29.85S
BLAIR          MOCLDY    74  72  92 SE6       29.85S FOG
FREMONT        PTCLDY    73  70  88 SE7       29.84F
MILLARD        MOCLDY    75  73  92 CALM      29.85S
OFFUTT AFB     MOCLDY    73  73  99 SE6       29.85S
PLATTSMOUTH    MOCLDY    73  69  87 SE5       29.86S
WAHOO          FAIR      70  67  89 SE3       29.84F
$$



USA.gov is the U.S. government's official web portal to all federal, state and local government web resources and services.